[[{"header":{"parameterUnit":"m.s-1","parameterCategory":1,"la1":30.2991,"la2":30.254,"lo1":-89.0895,"lo2":-89.0444,"dy":0.0017,"dx":0.0017,"nx":28,"ny":28,"refTime":"2025-04-10T03:00:00:Z","depth":0,"parameterNumber":2,"parameterNumberName":"U-component_of_WINDS"},"data":[0,0,0,0,0,0,0,0,0,0,0,0,0,0,0,0,0,0,0,0,0,0,0,0,0,0,0,0,0,0,0,0,0,0,0,0,0,0,0,0,0,0,0,0,0,0,0,0,0,0,0,0,0,0,0,0,0,0,3.7322,3.7322,0,3.7397,3.7398,3.7399,3.7361,3.736,3.7358,3.7356,3.7431,3.7435,3.7439,0,0,0,0,0,0,0,0,0,0,0,0,0,3.7144,3.7148,3.7321,3.7322,3.7323,3.7397,3.7398,3.7399,3.7362,3.7359,3.7357,3.7355,3.743,3.7435,3.7439,0,0,0,0,0,0,0,0,0,0,0,0,0,3.7221,3.7149,3.7321,3.7314,3.7314,3.7397,3.7398,3.7399,3.7362,3.7359,3.7356,3.7354,3.7429,3.7434,3.744,3.7534,0,0,3.7457,3.746,0,0,0,0,0,0,0,0,3.7216,3.7227,3.7314,3.7314,3.7315,3.7367,3.7363,3.7445,3.7363,3.7344,3.7356,3.7352,3.7412,3.7419,3.744,3.7538,3.7541,3.7458,3.7461,3.7464,3.7466,0,0,0,0,0,0,0,3.7211,3.7224,3.7351,3.7315,3.7316,3.7306,3.7314,3.7379,3.7393,3.7345,3.7343,3.7352,3.7412,3.7434,3.7441,3.7542,3.7458,3.7463,3.7467,3.7469,3.7723,3.7726,0,0,0,0,0,0,3.7206,3.722,3.7349,3.7354,3.7257,3.7312,3.732,3.7353,3.7393,3.7396,3.7355,3.735,3.7426,3.7434,3.7444,3.7558,3.7464,3.7469,3.7473,3.772,3.7724,3.7728,0,0,0,0,0,0,3.7203,3.7218,3.7346,3.7286,3.7302,3.7318,3.7355,3.7356,3.7378,3.74,3.7402,3.7375,3.7424,3.7436,3.7513,3.756,3.7472,3.7477,3.7716,3.7721,3.7726,3.7786,0,0,0,0,0,0,3.7198,3.7217,3.7253,3.7287,3.7305,3.7414,3.7358,3.736,3.7389,3.7384,3.7419,3.7423,3.7422,3.7504,3.7518,3.7566,3.7482,3.7712,3.7718,3.7724,3.778,3.7793,3.7803,0,0,0,0,0,3.7192,3.7266,3.7255,3.7271,3.735,3.7416,3.7427,3.7425,3.7393,3.7429,3.7443,3.7421,3.7553,3.7512,3.7528,3.7578,3.7709,3.7717,3.7724,3.7775,3.779,3.7803,0,0,0,0,0,0,3.7236,3.7271,3.7258,3.7346,3.7379,3.741,3.7456,3.7441,3.7483,3.7477,3.7473,3.7482,3.7562,3.7578,3.7532,3.7673,3.7626,3.7637,3.7659,3.7674,3.7685,3.768,3.7486,0,0,0,0,0,3.7257,3.7308,3.7335,3.741,3.7427,3.7439,3.7468,3.7464,3.7497,3.7511,3.753,3.7563,3.7612,3.7644,3.7689,3.7783,3.779,3.7825,3.7837,3.7846,3.7856,3.7907,3.7923,3.7752,3.7752,3.7752,0,0,3.7299,3.7324,3.7356,3.742,3.7444,3.7498,3.745,3.7508,3.7548,3.7519,3.7593,3.7609,3.7646,3.7732,3.777,3.7747,3.7905,3.7856,3.7863,3.7867,3.7917,3.7933,3.7947,3.7757,3.7756,3.7755,0,0,3.7402,3.7426,3.7492,3.7519,3.7557,3.7565,3.7581,3.7615,3.7625,3.7699,3.768,3.7726,3.781,3.7837,3.7862,3.7979,3.7961,3.7994,3.8055,3.8105,3.8119,3.8131,3.8173,3.8188,3.8003,3.8004,3.8004,0,3.745,3.7529,3.7528,3.7588,3.7617,3.7595,3.7662,3.7687,3.7739,3.7759,3.7733,3.7839,3.7862,3.7954,3.7983,3.8004,3.8022,3.799,3.8117,3.8129,3.814,3.8181,3.8197,3.8007,3.8007,3.8006,3.8006,0,3.7586,3.7642,3.769,3.7742,3.7776,3.784,3.7848,3.7883,3.7877,3.7888,3.7965,3.7992,3.8044,3.8066,3.806,3.8158,3.8143,3.8117,3.807,3.816,3.8198,3.8214,3.8013,3.8011,3.801,3.8009,0,0,3.7719,3.777,3.7788,3.7812,3.7854,3.7897,3.796,3.8011,3.8042,3.8079,3.8132,3.8204,3.8181,3.821,3.8207,3.8251,3.8344,3.822,3.8221,3.8243,3.8455,3.8474,3.8492,3.8332,3.8335,3.8337,3.8452,0,3.7826,3.7936,3.7938,3.8039,3.8092,3.8072,3.8127,3.8159,3.8171,3.8217,3.823,3.8282,3.8248,3.8265,3.8308,3.8323,3.8386,3.8315,3.8381,3.8384,3.8373,3.8511,3.8532,3.8638,3.8467,3.8469,3.8471,0,3.7965,3.8008,3.8115,3.8152,3.8173,3.8223,3.8271,3.8315,3.8351,3.8357,3.839,3.8381,3.8446,3.8397,3.8486,3.8438,3.8466,3.8477,3.8482,3.8487,3.8433,3.8521,3.8672,3.8688,3.8494,3.8492,3.8491,0,3.8052,3.8137,3.8212,3.8233,3.8277,3.8312,3.8332,3.8366,3.8397,3.8439,3.846,3.8509,3.8536,3.8574,3.8579,3.8543,3.8669,3.862,3.8676,3.8676,3.8703,3.8701,3.886,3.8721,3.872,3.872,3.872,0,3.8172,3.8239,3.8252,3.8298,3.8373,3.8374,3.8448,3.8464,3.8495,3.8544,3.8531,3.8577,3.8581,3.8629,3.8634,3.8707,3.8719,3.8726,3.8726,3.8727,3.8727,3.8745,3.8738,3.8724,3.8723,3.8722,3.8722,0,3.8281,3.8293,3.8374,3.841,3.8421,3.8474,3.8504,3.8549,3.856,3.8623,3.8638,3.8656,3.8712,3.8722,3.8787,3.879,3.8879,3.8871,3.8867,3.8866,3.8921,3.8916,3.9097,3.9122,3.8966,3.8968,3.8969,0,3.8357,3.8408,3.845,3.8482,3.8505,3.8557,3.859,3.8594,3.8628,3.8675,3.8714,3.8769,3.8813,3.8904,3.8923,3.8974,3.8967,3.9028,3.8975,3.8975,3.8969,3.8966,3.8971,3.9038,3.9039,3.9041,3.9042,0,3.849,3.8494,3.8542,3.8593,3.8632,3.8672,3.871,3.8737,3.8746,3.8786,3.8844,3.8878,3.8947,3.9002,3.9052,3.9073,3.9059,3.9059,3.9074,3.9075,3.9071,3.9075,3.8895,3.9054,3.9053,3.9052,3.9051,3.9051,3.8585,3.863,3.8667,3.8722,3.8751,3.8787,3.8831,3.8849,3.8897,3.8954,3.8953,3.9017,3.9053,3.912,3.9144,3.9194,3.9175,3.9197,3.9203,3.9208,3.9214,3.9063,3.9204,3.9203,3.9203,3.9203,3.9202,0,3.8718,3.8742,3.8792,3.8846,3.8889,3.8873,3.8915,3.8952,3.9008,3.9044,3.9088,3.9156,3.921,3.9233,3.9287,3.9322,3.9318,3.9336,3.9333,3.9339,3.9228,3.921,3.9339,3.9339,3.9339,3.9339,3.9339,3.9339,3.8792,3.8868,3.8877,3.8967,3.899,3.9053,3.9078,3.9112,3.914,3.9216,3.9261,3.9277,3.9308,3.9364,3.9413,3.9419,3.9439,3.9461,3.9464,3.936,3.9346,3.9333,3.9315,3.9465,3.9465,3.957,3.9571,3.9572]},{"header":{"parameterUnit":"m.s-1","parameterCategory":1,"la1":30.2991,"la2":30.254,"lo1":-89.0895,"lo2":-89.0444,"dy":0.0017,"dx":0.0017,"nx":28,"ny":28,"refTime":"2025-04-10T03:00:00:Z","depth":0,"parameterNumber":3,"parameterNumberName":"V-component_of_WINDS"},"data":[0,0,0,0,0,0,0,0,0,0,0,0,0,0,0,0,0,0,0,0,0,0,0,0,0,0,0,0,0,0,0,0,0,0,0,0,0,0,0,0,0,0,0,0,0,0,0,0,0,0,0,0,0,0,0,0,0,0,-4.8312,-4.8313,0,-4.8415,-4.8416,-4.8418,-4.8393,-4.8391,-4.8389,-4.8387,-4.849,-4.8494,-4.8499,0,0,0,0,0,0,0,0,0,0,0,0,0,-4.8091,-4.8095,-4.8312,-4.8313,-4.8314,-4.8415,-4.8416,-4.8418,-4.8393,-4.8391,-4.8388,-4.8386,-4.8489,-4.8494,-4.8499,0,0,0,0,0,0,0,0,0,0,0,0,0,-4.819,-4.8097,-4.8311,-4.8314,-4.8315,-4.8415,-4.8417,-4.8418,-4.8394,-4.8391,-4.8388,-4.8385,-4.8487,-4.8493,-4.85,-4.8602,0,0,-4.8521,-4.8524,0,0,0,0,0,0,0,0,-4.8184,-4.8198,-4.8312,-4.8314,-4.8316,-4.8388,-4.8376,-4.848,-4.8394,-4.8364,-4.8387,-4.8383,-4.8458,-4.8467,-4.8493,-4.8607,-4.8612,-4.8522,-4.8526,-4.8529,-4.8531,0,0,0,0,0,0,0,-4.8177,-4.8193,-4.8353,-4.8314,-4.8316,-4.831,-4.832,-4.8396,-4.8426,-4.8366,-4.8365,-4.8378,-4.8459,-4.8487,-4.8495,-4.8613,-4.8522,-4.8528,-4.8532,-4.8535,-4.8817,-4.8821,0,0,0,0,0,0,-4.817,-4.8188,-4.8349,-4.8356,-4.8241,-4.8316,-4.8328,-4.8368,-4.8426,-4.8432,-4.838,-4.8376,-4.8476,-4.8487,-4.8499,-4.8623,-4.8529,-4.8535,-4.8539,-4.8814,-4.8818,-4.8822,0,0,0,0,0,0,-4.8165,-4.8184,-4.8345,-4.8271,-4.8291,-4.8323,-4.8368,-4.8371,-4.8399,-4.8436,-4.8441,-4.8403,-4.8474,-4.8489,-4.8577,-4.8627,-4.8539,-4.8545,-4.881,-4.8815,-4.882,-4.8872,0,0,0,0,0,0,-4.8159,-4.8183,-4.8222,-4.8273,-4.8296,-4.8422,-4.8371,-4.8376,-4.8412,-4.8408,-4.8459,-4.8465,-4.8473,-4.8567,-4.8584,-4.8634,-4.855,-4.8806,-4.8812,-4.8818,-4.8866,-4.8879,-4.8889,0,0,0,0,0,-4.8151,-4.8232,-4.8224,-4.8244,-4.8346,-4.8425,-4.8438,-4.8447,-4.8416,-4.8456,-4.8479,-4.8463,-4.8619,-4.8576,-4.8595,-4.8648,-4.8803,-4.8811,-4.8818,-4.8861,-4.8876,-4.8889,0,0,0,0,0,0,-4.8185,-4.8238,-4.8231,-4.833,-4.8374,-4.8421,-4.8471,-4.8463,-4.8515,-4.8509,-4.8517,-4.8529,-4.8619,-4.8642,-4.8595,-4.8751,-4.8706,-4.8718,-4.8732,-4.8747,-4.8758,-4.875,-4.8556,0,0,0,0,0,-4.8204,-4.8265,-4.8308,-4.8392,-4.8414,-4.8439,-4.8474,-4.8478,-4.8523,-4.854,-4.857,-4.8614,-4.8673,-4.8711,-4.8767,-4.887,-4.8881,-4.8916,-4.8927,-4.8936,-4.8946,-4.9003,-4.9019,-4.8847,-4.8847,-4.8847,0,0,-4.8244,-4.8281,-4.8319,-4.84,-4.8434,-4.8497,-4.8455,-4.8522,-4.8569,-4.855,-4.8636,-4.866,-4.8709,-4.8805,-4.8849,-4.8827,-4.8996,-4.8946,-4.8953,-4.8958,-4.9013,-4.9029,-4.9043,-4.8852,-4.8851,-4.885,0,0,-4.8349,-4.8383,-4.8457,-4.8493,-4.8545,-4.8562,-4.858,-4.8629,-4.8644,-4.8731,-4.8719,-4.8774,-4.8874,-4.891,-4.8942,-4.9062,-4.905,-4.908,-4.9139,-4.9195,-4.9209,-4.9221,-4.9264,-4.928,-4.909,-4.909,-4.909,0,-4.8392,-4.8487,-4.8496,-4.8566,-4.8602,-4.859,-4.8665,-4.8699,-4.8766,-4.8792,-4.8767,-4.8894,-4.8926,-4.9031,-4.9061,-4.9087,-4.9107,-4.9074,-4.9206,-4.9218,-4.923,-4.9272,-4.9288,-4.9094,-4.9093,-4.9093,-4.9093,0,-4.8537,-4.8603,-4.8657,-4.8724,-4.8767,-4.8839,-4.8859,-4.89,-4.8901,-4.892,-4.9008,-4.9046,-4.911,-4.9136,-4.9136,-4.9241,-4.9226,-4.9204,-4.9159,-4.9249,-4.9289,-4.9305,-4.9099,-4.9097,-4.9096,-4.9096,0,0,-4.8666,-4.8739,-4.8759,-4.879,-4.8847,-4.8898,-4.897,-4.9034,-4.907,-4.9117,-4.9178,-4.9264,-4.9244,-4.928,-4.9284,-4.9333,-4.9428,-4.9305,-4.9306,-4.9327,-4.9547,-4.9564,-4.9582,-4.942,-4.9423,-4.9425,-4.9543,0,-4.8777,-4.8904,-4.8915,-4.903,-4.9091,-4.9081,-4.9143,-4.9186,-4.9206,-4.926,-4.9281,-4.9343,-4.9312,-4.9334,-4.9382,-4.9406,-4.9472,-4.9397,-4.9476,-4.9478,-4.9464,-4.9603,-4.9621,-4.973,-4.9559,-4.9561,-4.9563,0,-4.8923,-4.8976,-4.9097,-4.9148,-4.9174,-4.923,-4.929,-4.9343,-4.9391,-4.9402,-4.9443,-4.9441,-4.9514,-4.9467,-4.9569,-4.9518,-4.9551,-4.9568,-4.9572,-4.958,-4.9526,-4.9614,-4.9765,-4.9782,-4.9587,-4.9585,-4.9584,0,-4.9005,-4.9107,-4.9193,-4.922,-4.9281,-4.9321,-4.9348,-4.9393,-4.9431,-4.9484,-4.9509,-4.9569,-4.9602,-4.9648,-4.9662,-4.9626,-4.9764,-4.9717,-4.9775,-4.9775,-4.9804,-4.9802,-4.9963,-4.9825,-4.9825,-4.9824,-4.9824,0,-4.9128,-4.9202,-4.9231,-4.9284,-4.9367,-4.938,-4.9462,-4.9486,-4.9527,-4.9584,-4.9579,-4.9632,-4.9648,-4.9705,-4.9716,-4.9799,-4.9814,-4.9825,-4.9827,-4.9826,-4.9824,-4.9847,-4.984,-4.9829,-4.9828,-4.9827,-4.9826,0,-4.9234,-4.9256,-4.9349,-4.94,-4.9415,-4.9474,-4.9517,-4.9568,-4.9588,-4.966,-4.9678,-4.9709,-4.9775,-4.9794,-4.9873,-4.9881,-4.9979,-4.9974,-4.9963,-4.9964,-5.0021,-5.0015,-5.0201,-5.0227,-5.0072,-5.0074,-5.0075,0,-4.9311,-4.9368,-4.9426,-4.9464,-4.9494,-4.9556,-4.9595,-4.961,-4.9651,-4.9711,-4.9755,-4.9821,-4.9874,-4.9981,-5.001,-5.0071,-5.0067,-5.0128,-5.0076,-5.0074,-5.0069,-5.0066,-5.0072,-5.0138,-5.014,-5.0141,-5.0142,0,-4.9445,-4.9454,-4.9511,-4.9574,-4.9622,-4.9671,-4.9718,-4.975,-4.9772,-4.9818,-4.9887,-4.9929,-5.0011,-5.0077,-5.0139,-5.0166,-5.0158,-5.0159,-5.0175,-5.0174,-5.0166,-5.0172,-4.9991,-5.0154,-5.0153,-5.0152,-5.0151,-5.0151,-4.9539,-4.959,-4.9639,-4.9704,-4.9742,-4.9787,-4.9838,-4.9864,-4.9922,-4.9991,-4.9996,-5.0071,-5.0118,-5.0201,-5.0232,-5.029,-5.0272,-5.0296,-5.0302,-5.0308,-5.0313,-5.0157,-5.0301,-5.0301,-5.0301,-5.03,-5.03,0,-4.9674,-4.9705,-4.9765,-4.9833,-4.9884,-4.9873,-4.9925,-4.9969,-5.0035,-5.008,-5.0134,-5.0213,-5.0277,-5.0312,-5.0376,-5.0416,-5.0414,-5.0432,-5.043,-5.0436,-5.0325,-5.0305,-5.0433,-5.0433,-5.0433,-5.0433,-5.0433,-5.0433,-4.975,-4.9836,-4.9851,-4.9956,-4.9987,-5.0061,-5.0092,-5.0133,-5.017,-5.0259,-5.0313,-5.0336,-5.0377,-5.0444,-5.0502,-5.0511,-5.0535,-5.0555,-5.0562,-5.0457,-5.0444,-5.0431,-5.0412,-5.056,-5.0561,-5.0668,-5.0669,-5.067]}]]